Regional Weather Roundup
Issued by NWS Cleveland, OH

Home | Current Version | Previous Version | Graphics & Text | Print | Product List | Glossary On
Versions: 1 2 3 4 5 6 7 8 9 10 11 12 13 14 15 16 17 18 19 20 21 22 23 24 25 26 27 28 29 30 31 32 33 34 35 36 37 38 39 40 41 42 43 44 45 46 47 48 49 50
000
ASUS41 KCLE 290600
RWRCLE
OHIO REGIONAL WEATHER ROUNDUP
NATIONAL WEATHER SERVICE WILMINGTON, OH
200 AM EDT FRI MAY 29 2015

NOTE: "FAIR" INDICATES FEW OR NO CLOUDS BELOW 12,000 FEET WITH NO
SIGNIFICANT WEATHER AND/OR OBSTRUCTIONS TO VISIBILITY.

OHZ001>008-015>018-024>027-034-035-043-044-290700-
   NORTHWEST OHIO

CITY           SKY/WX    TMP DP  RH WIND       PRES   REMARKS
DEFIANCE       CLEAR     65  57  75 E7        30.14F
FINDLAY        PTCLDY    66  60  81 SE6       30.15F
TOLEDO EXPRESS CLOUDY    65  54  67 E5        30.16S
TOLEDO EXEC    MOCLDY    62  54  74 E5        30.17F
LIMA           PTCLDY    70  61  73 SE9       30.15F
$$

OHZ009>014-019>023-028>033-038-089-290700-
   NORTHEAST OHIO

CITY           SKY/WX    TMP DP  RH WIND       PRES   REMARKS
CLE-HOPKINS    PTCLDY    65  55  70 SE6       30.22F
CLE-LAKEFRONT  CLEAR     67  53  61 SW3       30.19F
CUY CO. ARPT   NOT AVBL
LORAIN-ELYRIA  CLEAR     61  56  83 SE6       30.20F
ASHTABULA      CLEAR     58  54  86 SE6       30.24F
AKRON-CANTON   CLEAR     66  53  63 E5        30.22F
WOOSTER        NOT AVBL
MANSFIELD      CLEAR     65  57  75 SE6       30.20F
YOUNGSTOWN     PTCLDY    59  55  87 E6        30.23F
$$

OHZ042-051>053-060>062-070>072-077>081-290700-
  SOUTHWEST OHIO

CITY           SKY/WX    TMP DP  RH WIND       PRES   REMARKS
CINC-COVINGTON PTCLDY    69  65  86 S3        30.14F
CINC-LUNKEN    PTCLDY    65  65 100 CALM      30.14F
HAMILTON       PTCLDY    65  64  97 CALM      30.14F
DAYTON         NOT AVBL
WRIGHT-PAT AFB CLEAR     69  63  82 SE2       30.14F
DAYTON GENERAL PTCLDY    68  63  84 S3        30.14F
WILMINGTON     MOCLDY    69  63  81 SE3       30.15F
$$

OHZ036-037-039>041-045>050-054>059-063>069-073>076-082>088-290700-
  CENTRAL AND SOUTHEAST OHIO

CITY           SKY/WX    TMP DP  RH WIND       PRES   REMARKS
COLUMBUS       PTCLDY    70  61  73 E6        30.17F
OSU AIRPORT    CLEAR     71  61  70 SE8       30.17F
BOLTON FIELD   NOT AVBL
RICKENBACK AFB NOT AVBL
NEWARK         CLEAR     62  61  96 CALM      30.18F
MARION         PTCLDY    66  59  78 SE5       30.18F
LANCASTER      CLEAR     66  63  90 CALM      30.18F
ZANESVILLE     CLEAR     67  59  75 CALM      30.18F
NEW PHILLY     CLEAR     63  59  87 CALM      30.21F
$$


USA.gov is the U.S. government's official web portal to all federal, state and local government web resources and services.